Marrakech, Morocco

11:33 AM WET on February 20, 2017 (GMT +0000)
Marrakech

Weather History for 60230 - July, 2013

Change the Weather History Date:

Monday, July 15, 2013

  Actual Average Record
Temperature  
Mean Temperature 83 °F -  
Max Temperature 100 °F 95 °F - ()
Min Temperature 66 °F 66 °F - ()
Cooling Degree Days 18    
Growing Degree Days 33 (Base 50)    
Moisture  
Dew Point 50 °F    
Average Humidity 34    
Maximum Humidity 68    
Minimum Humidity 6    
Precipitation  
Precipitation 0.00 in 0.00 in - ()
Sea Level Pressure  
Sea Level Pressure 30.05 in    
Wind  
Wind Speed 6 mph ()    
Max Wind Speed 25 mph    
Max Gust Speed -    
Visibility 6.1 miles    
Events      
T = Trace of Precipitation, MM = Missing Value Source: Averaged Metar Reports

Daily Weather History Graph

Daily Weather History Graph

Search for Another Location

Airport or City:

Trip Planner

Search our weather history database for the weather conditions in past years. The results will help you decide how hot, cold, wet, or windy it might be!

Date:

Astronomy

Jul. 15, 2013 Rise Set
Actual Time 5:37 AM WET 7:38 PM WET
Civil Twilight 5:10 AM WET 8:05 PM WET
Nautical Twilight 4:36 AM WET 8:39 PM WET
Astronomical Twilight 4:01 AM WET 9:14 PM WET
Moon 12:12 PM WET (7/15) 11:48 PM WET (7/15)
Length of Visible Light 14h 55m
Length of Day
14h 00m
Waxing Crescent, 43% of the Moon is Illuminated
Jul 15
Waxing Crescent
Jul 16
First Quarter
Jul 22
Full
Jul 29
Last Quarter
Aug 6
New

Hourly Weather History & Observations

Time (WET) Temp. Heat Index Dew Point Humidity Pressure Visibility Wind Dir Wind Speed Gust Speed Precip Events Conditions
12:00 AM 81 °F - 55 °F 31% 30.01 in 6 mi ENE 13.4 mph - -  
12:00 AM 80.6 °F 80.5 °F 55.4 °F 42% 30.09 in - ENE 8.1 mph - N/A   Clear
12:30 AM 80.6 °F 80.5 °F 55.4 °F 42% 30.09 in - NE 5.8 mph - N/A   Clear
1:00 AM 78.8 °F - 57.2 °F 47% 30.06 in - NE 5.8 mph - N/A   Clear
1:30 AM 78.8 °F - 55.4 °F 44% 30.06 in - NE 6.9 mph - N/A   Clear
2:00 AM 77.0 °F - 57.2 °F 50% 30.06 in - NNE 3.5 mph - N/A   Clear
2:30 AM 77.0 °F - 57.2 °F 50% 30.06 in - NNE 2.3 mph - N/A   Clear
3:00 AM 76 °F - 57 °F 41% 30.00 in 6 mi ENE 2.3 mph - -  
3:00 AM 77.0 °F - 57.2 °F 50% 30.06 in - Variable 2.3 mph - N/A   Clear
3:30 AM 75.2 °F - 55.4 °F 50% 30.06 in - East 3.5 mph - N/A   Clear
4:00 AM 75.2 °F - 55.4 °F 50% 30.06 in - East 4.6 mph - N/A   Clear
4:30 AM 73.4 °F - 55.4 °F 53% 30.06 in - East 3.5 mph - N/A   Clear
5:00 AM 75.2 °F - 57.2 °F 53% 30.06 in - NNE 3.5 mph - N/A   Clear
5:30 AM 68.0 °F - 55.4 °F 64% 30.06 in - West 6.9 mph - N/A   Clear
6:00 AM 67 °F - 56 °F 58% 30.03 in 6 mi West 3.5 mph - -  
6:00 AM 68.0 °F - 55.4 °F 64% 30.06 in - West 3.5 mph - N/A   Clear
6:30 AM 68.0 °F - 57.2 °F 68% 30.06 in - WSW 3.5 mph - N/A   Clear
7:00 AM 69.8 °F - 59.0 °F 68% 30.09 in - West 4.6 mph - N/A   Clear
7:30 AM 71.6 °F - 59.0 °F 64% 30.09 in 6.2 mi WSW 4.6 mph - N/A   Partly Cloudy
8:00 AM 71.6 °F - 59.0 °F 64% 30.09 in 6.2 mi WSW 4.6 mph - N/A   Partly Cloudy
8:30 AM 75.2 °F - 59.0 °F 57% 30.09 in - WSW 3.5 mph - N/A   Clear
9:00 AM 78 °F - 60 °F 44% 30.02 in 6 mi NW 6.7 mph - -  
9:00 AM 78.8 °F - 59.0 °F 51% 30.09 in - WNW 3.5 mph - N/A   Clear
9:30 AM 80.6 °F 81.1 °F 59.0 °F 48% 30.09 in - NW 3.5 mph - N/A   Clear
10:00 AM 82.4 °F 82.5 °F 59.0 °F 45% 30.09 in - NNW 3.5 mph - N/A   Clear
10:30 AM 84.2 °F 83.8 °F 59.0 °F 42% 30.09 in - NW 3.5 mph - N/A   Clear
11:00 AM 86.0 °F 84.9 °F 57.2 °F 37% 30.09 in - NW 4.6 mph - N/A   Clear
11:30 AM 89.6 °F 87.7 °F 55.4 °F 31% 30.06 in - NNW 4.6 mph - N/A   Clear
12:00 PM 91 °F - 53 °F 18% 29.96 in 6 mi North 8.9 mph - -  
12:00 PM 91.4 °F 89.1 °F 53.6 °F 28% 30.06 in - North 5.8 mph - N/A   Clear
12:30 PM 93.2 °F 90.8 °F 53.6 °F 26% 30.06 in - Variable 4.6 mph - N/A   Clear
1:00 PM 95.0 °F - 50.0 °F 22% 30.04 in - Variable 4.6 mph - N/A   Clear
1:30 PM 96.8 °F - 44.6 °F 17% 30.04 in - NNW 6.9 mph - N/A   Clear
2:00 PM 98.6 °F - 42.8 °F 15% 30.04 in - NNW 6.9 mph - N/A   Clear
2:30 PM 100.4 °F - 37.4 °F 11% 30.04 in - Variable 6.9 mph - N/A   Clear
3:00 PM 99 °F - 38 °F 6% 29.90 in 6 mi NE 5.8 mph - -   Scattered Clouds
3:00 PM 98.6 °F - 37.4 °F 12% 30.04 in 6.2 mi Variable 4.6 mph - N/A   Partly Cloudy
3:30 PM 100.4 °F - 37.4 °F 11% 30.04 in 6.2 mi Variable 4.6 mph - N/A   Partly Cloudy
4:00 PM 100.4 °F - 35.6 °F 11% 30.01 in 6.2 mi North 4.6 mph - N/A   Partly Cloudy
4:30 PM 100.4 °F - 35.6 °F 11% 30.01 in 6.2 mi ENE 4.6 mph - N/A   Partly Cloudy
5:00 PM 100.4 °F - 37.4 °F 11% 30.01 in 6.2 mi Variable 5.8 mph - N/A   Unknown
5:30 PM 100.4 °F - 39.2 °F 12% 30.01 in 6.2 mi NNE 10.4 mph - N/A   Partly Cloudy
6:00 PM 100 °F - 38 °F 6% 29.88 in 6 mi NNE 24.6 mph - -   Scattered Clouds
6:00 PM 100.4 °F - 37.4 °F 11% 30.01 in 6.2 mi NNE 10.4 mph - N/A   Partly Cloudy
6:30 PM 98.6 °F - 39.2 °F 13% 30.01 in 6.2 mi North 11.5 mph - N/A   Partly Cloudy
7:00 PM 95.0 °F - 46.4 °F 19% 30.04 in 6.2 mi North 13.8 mph - N/A   Partly Cloudy
7:30 PM 93.2 °F - 44.6 °F 19% 30.04 in 6.2 mi North 13.8 mph - N/A   Partly Cloudy
8:00 PM 91.4 °F - 44.6 °F 20% 30.04 in 6.2 mi North 12.7 mph - N/A   Scattered Clouds
8:30 PM 87.8 °F - 46.4 °F 24% 30.06 in 6.2 mi NNE 17.3 mph - N/A   Scattered Clouds
9:00 PM 87 °F - 47 °F 15% 30.00 in 6 mi NNE 12.7 mph - -   Partly Cloudy
9:00 PM 86.0 °F - 46.4 °F 25% 30.09 in 6.2 mi NNE 12.7 mph - N/A   Scattered Clouds
9:30 PM 86.0 °F - 46.4 °F 25% 30.09 in 6.2 mi NE 9.2 mph - N/A   Scattered Clouds
10:00 PM 84.2 °F - 44.6 °F 25% 30.12 in 6.2 mi NE 10.4 mph - N/A   Scattered Clouds
10:30 PM 84.2 °F - 44.6 °F 25% 30.12 in - ENE 5.8 mph - N/A   Clear
11:00 PM 82.4 °F - 46.4 °F 28% 30.12 in - NE 9.2 mph - N/A   Clear
11:30 PM 82.4 °F - 46.4 °F 28% 30.12 in - NNE 9.2 mph - N/A   Clear